Location: Buckeye Ditch
(40.9104°N, 122.9517°W)
Time: 16:02:59
(UTC+00:00)

Transit 2A - Pass Details

Date: 27 May 2025
Orbit: 599 x 947 km, 66.7° (Epoch: 15 June)

Event Time Altitude Azimuth Distance (km) Brightness Sun altitude
Rises 12:43:30 0° 194° (SSW) 3,045 8.7 -1.0°
Reaches altitude 10° 12:45:57 10° 189° (S) 2,083 7.9 -0.6°
Maximum altitude 12:50:26 49° 115° (ESE) 822 6.6 0.1°
Drops below altitude 10° 12:54:41 10° 41° (NE) 1,970 9.7 0.8°
Sets 12:56:56 0° 36° (NE) 2,862 10.3 1.2°
